Location: Newark
(54.6833°N, 25.2833°E)
Time: 13:25:58
(UTC+00:00)

Transit 2A Rocket - All Passes

Search period start: 26 September 2020 00:00
Search period end: 06 October 2020 00:00
Orbit: 585 x 918 km, 66.7° (Epoch: 25 September)

Date Brightness Start Highest point End Pass type
(mag) Time Alt. Az. Time Alt. Az. Time Alt. Az.
26 Sep - 00:07:27 10° NW 00:13:15 71° SW 00:18:29 10° SSE visible
26 Sep - 01:51:29 10° WNW 01:54:49 16° WSW 01:57:59 10° SW visible
26 Sep - 14:48:47 10° SSE 14:53:29 24° ESE 14:58:09 10° ENE daylight
26 Sep - 16:29:19 10° SW 16:35:29 85° SE 16:41:33 10° NE visible
26 Sep - 18:13:04 10° W 18:18:46 38° NNW 18:24:16 10° NE visible
26 Sep - 19:57:56 10° WNW 20:02:56 26° N 20:07:43 10° NE visible
26 Sep - 21:41:52 10° NW 21:47:12 33° NNE 21:52:12 10° E visible
26 Sep - 23:24:47 10° NW 23:30:39 82° NE 23:35:58 10° SE visible
27 Sep - 01:08:09 10° WNW 01:12:39 25° WSW 01:16:51 10° SSW visible
27 Sep - 14:07:52 10° SE 14:11:18 16° ESE 14:14:44 10° ENE daylight
27 Sep - 15:46:54 10° SSW 15:52:55 62° SE 15:58:54 10° NE daylight
27 Sep - 17:29:57 10° WSW 17:35:52 47° NW 17:41:38 10° NE visible
27 Sep - 19:14:46 10° WNW 19:19:52 27° N 19:24:46 10° NE visible
27 Sep - 20:59:03 10° NW 21:04:13 29° NNE 21:09:04 10° ENE visible
27 Sep - 22:42:09 10° NW 22:47:57 61° NE 22:53:15 10° ESE visible
28 Sep - 00:25:11 10° NW 00:30:23 37° WSW 00:35:09 10° S visible
28 Sep - 15:04:44 10° S 15:10:28 43° ESE 15:16:09 10° NE daylight
28 Sep - 16:47:00 10° WSW 16:53:04 60° NW 16:59:01 10° NE visible
28 Sep - 18:31:33 10° WNW 18:36:49 29° NNW 18:41:55 10° NE visible
28 Sep - 20:16:09 10° NW 20:21:10 26° N 20:25:54 10° ENE visible
28 Sep - 21:59:30 10° NW 22:05:10 46° NNE 22:10:22 10° ESE visible
28 Sep - 23:42:24 10° NW 23:48:00 55° WSW 23:53:05 10° SSE visible
29 Sep - 01:27:26 10° W 01:29:18 12° W 01:31:07 10° WSW night (unlit)
29 Sep - 14:22:55 10° S 14:28:07 30° ESE 14:33:17 10° NE daylight
29 Sep - 16:04:12 10° SW 16:10:22 80° NW 16:16:24 10° NE daylight
29 Sep - 17:48:19 10° W 17:53:50 34° NNW 17:59:09 10° NE visible
29 Sep - 19:33:09 10° NW 19:38:06 25° N 19:42:48 10° ENE visible
29 Sep - 21:16:49 10° NW 21:22:16 37° NNE 21:27:20 10° E visible
29 Sep - 22:59:42 10° NW 23:05:29 80° SW 23:10:44 10° SE visible
30 Sep - 00:43:27 10° WNW 00:47:13 19° WSW 00:50:46 10° SSW visible
30 Sep - 13:41:32 10° SSE 13:45:52 21° ESE 13:50:11 10° ENE daylight
30 Sep - 15:21:37 10° SSW 15:27:45 77° SE 15:33:46 10° NE daylight
30 Sep - 17:05:08 10° W 17:10:54 40° NNW 17:16:29 10° NE visible
30 Sep - 18:50:02 10° WNW 18:55:01 26° N 18:59:47 10° NE visible
30 Sep - 20:34:04 10° NW 20:39:19 31° NNE 20:44:13 10° E visible
30 Sep - 22:17:03 10° NW 22:22:52 74° NE 22:28:09 10° SE visible
01 Oct - 00:00:16 10° NW 00:05:01 28° WSW 00:09:24 10° S visible
01 Oct - 13:00:58 10° SE 13:03:43 13° ESE 13:06:28 10° ENE daylight
01 Oct - 14:39:16 10° SSW 14:45:13 55° ESE 14:51:06 10° NE daylight
01 Oct - 16:22:05 10° WSW 16:28:03 51° NW 16:33:51 10° NE visible
01 Oct - 18:06:50 10° WNW 18:11:57 27° NNW 18:16:53 10° NE visible
01 Oct - 19:51:15 10° NW 19:56:18 28° NNE 20:01:04 10° ENE visible
01 Oct - 21:34:24 10° NW 21:40:08 55° NE 21:45:22 10° ESE visible
01 Oct - 23:17:23 10° NW 23:22:42 43° WSW 23:27:34 10° S visible
02 Oct - 13:57:13 10° S 14:02:48 38° ESE 14:08:19 10° NE daylight
02 Oct - 15:39:10 10° SW 15:45:17 66° NW 15:51:15 10° NE daylight
02 Oct - 17:23:35 10° W 17:28:56 31° NNW 17:34:04 10° NE visible
02 Oct - 19:08:18 10° NW 19:13:15 26° N 19:17:56 10° ENE visible
02 Oct - 20:51:45 10° NW 20:57:18 42° NNE 21:02:25 10° ESE visible
02 Oct - 22:34:37 10° NW 22:40:17 63° SW 22:45:23 10° SSE visible
03 Oct - 00:19:03 10° WNW 00:21:43 14° WSW 00:24:17 10° SW night (unlit)
03 Oct - 13:15:32 10° SSE 13:20:29 26° ESE 13:25:23 10° ENE daylight
03 Oct - 14:56:26 10° SW 15:02:36 88° NW 15:08:38 10° NE daylight
03 Oct - 16:40:22 10° W 16:45:58 36° NNW 16:51:21 10° NE visible
03 Oct - 18:25:15 10° NW 18:30:10 25° N 18:34:51 10° NE visible
03 Oct - 20:09:02 10° NW 20:14:24 34° NNE 20:19:21 10° E visible
03 Oct - 21:51:57 10° NW 21:57:44 90° WSW 22:02:57 10° SE visible
03 Oct - 23:35:29 10° WNW 23:39:36 22° WSW 23:43:27 10° SSW visible
04 Oct - 12:34:21 10° SE 12:38:16 18° ESE 12:42:08 10° ENE daylight
04 Oct - 14:13:56 10° SSW 14:20:01 68° SE 14:25:59 10° NE daylight
04 Oct - 15:57:13 10° WSW 16:03:04 44° NNW 16:08:42 10° NE daylight
04 Oct - 17:42:06 10° WNW 17:47:06 26° N 17:51:53 10° NE visible
04 Oct - 19:26:17 10° NW 19:31:25 30° NNE 19:36:13 10° ENE visible
04 Oct - 21:09:18 10° NW 21:15:04 66° NE 21:20:18 10° SE visible
04 Oct - 22:52:26 10° NW 22:57:22 32° WSW 23:01:54 10° S visible
05 Oct - 11:54:26 10° ESE 11:56:09 11° E 11:57:53 10° E daylight
05 Oct - 13:31:41 10° SSW 13:37:32 48° ESE 13:43:17 10° NE daylight
05 Oct - 15:14:13 10° WSW 15:20:15 55° NW 15:26:04 10° NE daylight
05 Oct - 16:58:52 10° WNW 17:04:03 28° NNW 17:09:00 10° NE visible
05 Oct - 18:43:24 10° NW 18:48:23 27° N 18:53:04 10° ENE visible
05 Oct - 20:26:39 10° NW 20:32:18 49° NE 20:37:27 10° ESE visible
05 Oct - 22:09:35 10° NW 22:15:01 49° WSW 22:19:56 10° SSE visible
